Location: Boursonne
(49.2024°N, 3.0468°E)
Time: 03:56:08
(UTC+00:00)

Cosmos 2221 Rocket - Pass Details

Date: 03 March 2021
Orbit: 621 x 647 km, 82.5° (Epoch: 17 April)

Event Time Altitude Azimuth Distance (km) Brightness Sun altitude
Rises 20:17:28 0° 348° (NNW) 2,914 7.5 -26.9°
Reaches altitude 10° 20:19:43 10° 346° (NNW) 2,004 6.6 -27.3°
Enters shadow 20:23:09 51° 324° (NW) 792 4.3 -27.8°
